"Pseudo-MPEC" for 5K38A77 = 5K38A7A

Created 2016 Sep 30 23:51:29 UT using Find_Orb

Astrometry:
     5K38A7A  C2005 05 16.28963 14 50 43.30 +26 18 53.9          13.3 Vr     703
     5K38A7A  C2005 05 16.29835 14 50 04.56 +25 42 16.8          13.3 Vr     703
     5K38A77  C2005 05 16.30373 14 49 40.59 +25 19 03.2          13.1 Vr     703
     5K38A77  C2005 05 16.31251 14 49 01.17 +24 39 53.0          13.1 Vr     703

Station data:
(703) Catalina Sky Survey (N32.41707 W110.73264)  US/Arizona.   Observers E.
    J. Christensen, A. R. Gibbs, A. D. Grauer, R. E. Hill, J. A. Johnson, R. A.
    Kowalski, S. M. Larson, F. C. Shelly.  0.68 m Schmidt + CCD.

Orbital elements:  5K38A77 = 5K38A7A
   Perigee 2005 May 16.645548 +/- 0.0399 TT = 15:29:35 (JD 2453507.145548)
Epoch 2005 May 16.0 TT = JDT 2453506.5                        Find_Orb
M 238.986082 +/- 49                 (J2000 equatorial)
n 187.459193846 +/- 88.1            Peri.  309.241538 +/- 10
a 65262.79602 +/- 20437             Node    46.351691 +/- 1.7
e   0.82856998 +/- 0.0211           Incl.   83.458876 +/- 1.5
P2765.35m/1.920d           H 27.9   G  0.15   U 15.7  
q 11188.00206 +/- 5259    Q 119337.5899 +/- 45559
From 4 observations 2005 May 16 (32.9 min); mean residual 0".660
Residuals in arcseconds: 
050516 703 .102+ .274+    050516 703 .429+ 1.22+    
050516 703 .431- 1.20-    050516 703 .100- .294-    

Ephemerides (geocentric):
Date (UTC) HH   RA              Dec         delta   r     elong  mag " sig PA
---- -- -- --  ------------   ------------  ------ ------ -----  --- ---- ---
2005 05 16 00  14 43 16.483   +40 01 31.19  110536 1.0115 119.9 14.4 3632 139
2005 05 16 01  14 44 27.644   +38 28 57.12  107980 1.0115 121.4 14.4 2772 134
2005 05 16 02  14 45 39.279   +36 51 31.18  105066 1.0115 123.0 14.2 2069 128
2005 05 16 03  14 46 52.013   +35 08 06.07  101773 1.0115 124.7 14.1 1495 122
2005 05 16 04  14 48 06.570   +33 17 16.55   98082 1.0115 126.6 14.0 1024 116
2005 05 16 05  14 49 23.826   +31 17 11.91   93965 1.0115 128.6 13.8  623 112
2005 05 16 06  14 50 44.890   +29 05 24.20   89390 1.0115 130.8 13.7  271 123
2005 05 16 07  14 52 11.236   +26 38 29.05   84315 1.0115 133.2 13.5  225  38
2005 05 16 08  14 53 44.922   +23 51 33.02   78688 1.0115 136.0 13.3  623  60
2005 05 16 09  14 55 29.002   +20 37 14.18   72442 1.0115 139.2 13.0 1123  62
2005 05 16 10  14 57 28.339   +16 43 45.63   65487 1.0115 143.1 12.7 1705  65
2005 05 16 11  14 59 51.450   +11 50 42.84   57700 1.0115 147.9 12.2 2368  73
2005 05 16 12  15 02 55.377   +05 18 35.79   48904 1.0115 154.4 11.7 3392  97
2005 05 16 13  15 07 22.311   -04 22 50.53   38842 1.0115 163.9 10.9 8165 138
2005 05 16 14  15 15 50.066   -21 45 16.46   27169 1.0114 175.1 Sha  750' 163
2005 05 16 15  16 14 43.994   -68 59 55.79   14372 1.0113 129.8  9.7 132d 164
2005 05 16 16  03 11 18.475   +12 43 17.02   14955 1.0111   8.5 26??  68d   9
2005 05 16 17  03 46 19.297   +57 11 35.23   27799 1.0111  38.0 16??  38d  15
2005 05 16 18  04 35 26.216   +73 20 36.14   39383 1.0111  54.8 15??  30d  27
2005 05 16 19  06 17 54.974   +81 15 12.04   49373 1.0111  64.3 15.1  26d  52
2005 05 16 20  09 27 59.404   +83 25 53.10   58113 1.0111  70.7 15.0  24d  99
2005 05 16 21  11 46 18.033   +81 27 48.09   65855 1.0112  75.5 15.0  22d 133
2005 05 16 22  12 47 05.315   +78 34 53.84   72771 1.0112  79.4 15.0  21d 148
2005 05 16 23  13 17 32.056   +75 48 46.13   78984 1.0112  82.6 15.1  21d 155
2005 05 17 00  13 35 32.964   +73 17 49.35   84581 1.0112  85.3 15.1  20d 160
2005 05 17 01  13 47 30.453   +71 01 07.13   89629 1.0113  87.8 15.1  20d 162
2005 05 17 02  13 56 05.758   +68 56 21.93   94180 1.0113  90.0 15.1  20d 164
2005 05 17 03  14 02 37.341   +67 01 23.77   98275 1.0113  91.9 15.1  20d 165
2005 05 17 04  14 07 47.726   +65 14 24.52  101945 1.0114  93.8 15.1  20d 166
2005 05 17 05  14 12 01.919   +63 33 56.67  105217 1.0114  95.5 15.1  20d 167
2005 05 17 06  14 15 35.592   +61 58 49.37  108113 1.0114  97.1 15.1  20d 168
2005 05 17 07  14 18 39.076   +60 28 04.66  110651 1.0115  98.6 15.1  20d 168
2005 05 17 08  14 21 19.468   +59 00 54.40  112844 1.0115 100.1 15.1  20d 169
2005 05 17 09  14 23 41.820   +57 36 37.89  114704 1.0115 101.5 15.1  21d 169
2005 05 17 10  14 25 49.832   +56 14 40.09  116242 1.0116 102.9 15.1  21d 169
2005 05 17 11  14 27 46.287   +54 54 30.18  117464 1.0116 104.2 15.1  22d 169
2005 05 17 12  14 29 33.329   +53 35 40.47  118377 1.0116 105.6 15.0  23d 169
2005 05 17 13  14 31 12.639   +52 17 45.49  118985 1.0116 106.9 15.0  24d 169
2005 05 17 14  14 32 45.568   +51 00 21.23  119290 1.0117 108.2 15.0  25d 169
2005 05 17 15  14 34 13.221   +49 43 04.50  119294 1.0117 109.4 14.9  27d 169
2005 05 17 16  14 35 36.517   +48 25 32.26  118998 1.0117 110.7 14.9  29d 169
2005 05 17 17  14 36 56.242   +47 07 21.05  118399 1.0117 112.0 14.8  32d 169
2005 05 17 18  14 38 13.078   +45 48 06.31  117495 1.0118 113.3 14.8  36d 169
2005 05 17 19  14 39 27.633   +44 27 21.69  116281 1.0118 114.7 14.7  42d 169
2005 05 17 20  14 40 40.467   +43 04 38.19  114753 1.0118 116.0 14.6  55d 169
2005 05 17 21  14 41 52.107   +41 39 23.14  112902 1.0118 117.5 14.6 103d 169
2005 05 17 22  14 43 03.072   +40 10 58.83  110719 1.0118 118.9 14.5  83d 169
2005 05 17 23  14 44 13.887   +38 38 40.81  108192 1.0119 120.5 14.4  53d 169
2005 05 18 00  14 45 25.110   +37 01 35.45  105307 1.0119 122.1 14.3  43d 169
2005 05 18 01  14 46 37.355   +35 18 36.56  102047 1.0119 123.8 14.2  37d 169